Weather History for VIDP - March, 2014

Change the Weather History Date:

Wednesday, March 12, 2014

  Actual Average Record
Temperature  
Mean Temperature 68 °F -  
Max Temperature 78 °F 88 °F 93 °F (2004)
Min Temperature 57 °F 64 °F 53 °F (2001)
Cooling Degree Days 2    
Growing Degree Days 18 (Base 50)    
Moisture  
Dew Point 56 °F    
Average Humidity 68    
Maximum Humidity 94    
Minimum Humidity 36    
Precipitation  
Precipitation 0.00 in - - ()
Sea Level Pressure  
Sea Level Pressure 30.02 in    
Wind  
Wind Speed 5 mph ()    
Max Wind Speed 12 mph    
Max Gust Speed -    
Visibility 2.1 miles    
Events      
Averages and records for this station are not official NWS values.
T = Trace of Precipitation, MM = Missing Value Source: Averaged Metar Reports

Daily Weather History Graph

Daily Weather History Graph

Search for Another Location

Airport or City:

Trip Planner

Search our weather history database for the weather conditions in past years. The results will help you decide how hot, cold, wet, or windy it might be!

Date:

Astronomy

Mar. 12, 2014 Rise Set
Actual Time 6:35 AM IST 6:28 PM IST
Civil Twilight 6:11 AM IST 6:51 PM IST
Nautical Twilight 5:44 AM IST 7:18 PM IST
Astronomical Twilight 5:16 AM IST 7:46 PM IST
Moon 2:48 PM IST (3/12) 3:33 AM IST (3/12)
Length of Visible Light 12h 40m
Length of Day
11h 52m
Waxing Gibbous, 82% of the Moon is Illuminated
Mar 12
Waxing Gibbous
Mar 16
Full
Mar 24
Last Quarter
Mar 31
New
Apr 7
First Quarter

Hourly Weather History & Observations

Time (IST) Temp. Dew Point Humidity Pressure Visibility Wind Dir Wind Speed Gust Speed Precip Events Conditions
12:00 AM 62.6 °F 55.4 °F 77% 29.95 in 2.2 mi ESE 11.5 mph - N/A   Mostly Cloudy
12:30 AM 62.6 °F 55.4 °F 77% 29.95 in 2.2 mi East 9.2 mph - N/A   Scattered Clouds
1:00 AM 62.6 °F 55.4 °F 77% 29.95 in 2.2 mi East 4.6 mph - N/A   Scattered Clouds
1:30 AM 62.6 °F 55.4 °F 77% 29.98 in 2.2 mi East 6.9 mph - N/A   Scattered Clouds
2:00 AM 60.8 °F 55.4 °F 82% 29.98 in 2.2 mi Calm Calm - N/A   Scattered Clouds
2:30 AM 60.8 °F 55.4 °F 82% 29.98 in 2.2 mi Calm Calm - N/A   Scattered Clouds
3:00 AM 60.8 °F 55.4 °F 82% 29.98 in 2.2 mi Calm Calm - N/A   Scattered Clouds
3:30 AM 59.0 °F 55.4 °F 88% 29.98 in - Calm Calm - N/A   Scattered Clouds
4:30 AM 59.0 °F 55.4 °F 88% 29.98 in 1.2 mi Calm Calm - N/A   Scattered Clouds
5:00 AM 57.2 °F 55.4 °F 94% 29.98 in 1.1 mi Calm Calm - N/A   Scattered Clouds
6:00 AM 57.2 °F 55.4 °F 94% 30.01 in 0.7 mi West 3.5 mph - N/A   Scattered Clouds
6:30 AM 57.2 °F 55.4 °F 94% 30.01 in 0.7 mi West 3.5 mph - N/A   Scattered Clouds
7:00 AM 57.2 °F 55.4 °F 94% 30.04 in 0.9 mi NW 3.5 mph - N/A   Mostly Cloudy
7:30 AM - - N/A% 30.04 in 0.9 mi NNW 3.5 mph - N/A   Mostly Cloudy
8:30 AM 62.6 °F 57.2 °F 82% 30.06 in 1.6 mi ESE 6.9 mph - N/A   Scattered Clouds
9:30 AM 66.2 °F 57.2 °F 73% 30.06 in 2.2 mi ESE 6.9 mph - N/A   Haze
10:30 AM 71.6 °F 57.2 °F 60% 30.06 in 2.5 mi SE 6.9 mph - N/A   Haze
11:00 AM 73.4 °F 55.4 °F 53% 30.09 in 2.5 mi SSE 4.6 mph - N/A   Haze
11:30 AM 75.2 °F 55.4 °F 50% 30.09 in 2.8 mi SSE 4.6 mph - N/A   Haze
12:00 PM 75.2 °F 53.6 °F 47% 30.06 in 2.8 mi SSW 6.9 mph - N/A   Haze
12:30 PM 77.0 °F 53.6 °F 44% 30.06 in 2.8 mi South 6.9 mph - N/A   Haze
1:00 PM 77.0 °F 53.6 °F 44% 30.06 in 2.8 mi SE 5.8 mph - N/A   Haze
2:00 PM 77.0 °F 51.8 °F 41% 30.01 in 3.1 mi Variable 2.3 mph - N/A   Haze
2:30 PM 78.8 °F 50.0 °F 36% 30.01 in 3.1 mi Variable 2.3 mph - N/A   Haze
3:00 PM 78.8 °F 51.8 °F 39% 30.01 in 3.1 mi Variable 2.3 mph - N/A   Haze
3:30 PM 77.0 °F 60.8 °F 57% 29.98 in 2.5 mi NW 6.9 mph - N/A   Haze
4:00 PM 77.0 °F 55.4 °F 47% 29.98 in 2.2 mi NW 9.2 mph - N/A   Haze
4:30 PM 75.2 °F 57.2 °F 53% 29.98 in - NW 10.4 mph - N/A   Haze
5:00 PM 75.2 °F 57.2 °F 53% 29.98 in - NW 9.2 mph - N/A   Haze
5:30 PM 73.4 °F 59.0 °F 61% 29.98 in - NW 11.5 mph - N/A   Haze
6:30 PM 71.6 °F 62.6 °F 73% 30.01 in 1.9 mi NW 11.5 mph - N/A   Haze
7:00 PM 71.6 °F 62.6 °F 73% 30.01 in 2.5 mi NNW 11.5 mph - N/A   Haze
7:30 PM 69.8 °F 62.6 °F 78% 30.01 in 2.5 mi NW 11.5 mph - N/A   Haze
8:00 PM 69.8 °F 60.8 °F 73% 30.01 in 2.5 mi NW 8.1 mph - N/A   Haze
8:30 PM 69.8 °F 60.8 °F 73% 30.04 in 2.5 mi NW 6.9 mph - N/A   Haze
9:00 PM 69.8 °F 60.8 °F 73% 30.04 in 2.5 mi NW 8.1 mph - N/A   Haze
9:30 PM 68.0 °F 57.2 °F 68% 30.04 in - NW 9.2 mph - N/A   Haze
10:30 PM 68.0 °F 57.2 °F 68% 30.06 in 1.9 mi NW 10.4 mph - N/A   Haze
11:00 PM 66.2 °F 55.4 °F 68% 30.06 in 1.9 mi NW 6.9 mph - N/A   Haze
11:30 PM 64.4 °F 55.4 °F 73% 30.06 in 1.9 mi NW 8.1 mph - N/A   Haze